| time (UTC) | temp C | wind direction | speed KPH | gust KPH | rain 1hr cm | rain 24hr cm | rain mn cm | humidity % | barometer mb |
| 20260504081501 | 3 | 89 | 0.0 | 0.0 | 0.00 | 0.05 | 0.00 | 95 | 1010.1 |
| 20260504044540 | 6 | 252 | 0.0 | 1.6 | 0.00 | 0.05 | 0.00 | 92 | 1010.6 |
| 20260504043032 | 6 | 271 | 0.0 | 0.0 | 0.00 | 0.05 | 0.00 | 91 | 1010.9 |
| 20260504041532 | 6 | 271 | 0.0 | 0.0 | 0.03 | 0.05 | 0.00 | 90 | 1011.1 |
| 20260504040028 | 6 | 271 | 0.0 | 0.0 | 0.05 | 0.05 | 0.00 | 89 | 1011.0 |
| 20260504034526 | 7 | 271 | 0.0 | 1.6 | 0.05 | 0.05 | 0.05 | 88 | 1010.9 |
| 20260504033026 | 7 | 290 | 0.0 | 3.2 | 0.05 | 0.05 | 0.05 | 86 | 1011.2 |
| 20260504031524 | 7 | 332 | 1.6 | 6.4 | 0.03 | 0.03 | 0.03 | 84 | 1011.5 |
| 20260504030035 | 7 | 221 | 0.0 | 4.8 | 0.00 | 0.00 | 0.00 | 81 | 1011.7 |
| 20260504024523 | 7 | 70 | 0.0 | 3.2 | 0.00 | 0.00 | 0.00 | 77 | 1011.4 |
| 20260504023022 | 7 | 349 | 0.0 | 4.8 | 0.00 | 0.00 | 0.00 | 74 | 1011.3 |
| 20260504021526 | 8 | 42 | 0.0 | 1.6 | 0.00 | 0.00 | 0.00 | 69 | 1011.4 |
| 20260504020020 | 8 | 38 | 0.0 | 3.2 | 0.00 | 0.00 | 0.00 | 67 | 1011.3 |
| 20260504014520 | 8 | 56 | 1.6 | 6.4 | 0.00 | 0.00 | 0.00 | 64 | 1011.2 |
| 20260504013019 | 8 | 34 | 0.0 | 8.0 | 0.00 | 0.00 | 0.00 | 62 | 1011.2 |
| 20260504011519 | 9 | 22 | 0.0 | 8.0 | 0.00 | 0.00 | 0.00 | 61 | 1011.2 |
| 20260504010017 | 9 | 321 | 1.6 | 9.7 | 0.00 | 0.00 | 0.00 | 59 | 1011.1 |
| 20260504004522 | 9 | 231 | 3.2 | 9.7 | 0.00 | 0.00 | 0.00 | 57 | 1011.1 |
| 20260504003016 | 9 | 198 | 0.0 | 4.8 | 0.00 | 0.00 | 0.00 | 55 | 1010.9 |
| 20260504001515 | 9 | 226 | 0.0 | 3.2 | 0.00 | 0.00 | 0.00 | 53 | 1010.7 |
| 20260504000016 | 10 | 326 | 0.0 | 1.6 | 0.00 | 0.00 | 0.00 | 52 | 1010.6 |
| 20260503234526 | 10 | 252 | 0.0 | 6.4 | 0.00 | 0.00 | 0.00 | 51 | 1010.5 |
| 20260503233014 | 10 | 356 | 6.4 | 17.7 | 0.00 | 0.00 | 0.00 | 49 | 1010.7 |
| 20260503231513 | 10 | 329 | 3.2 | 12.9 | 0.00 | 0.00 | 0.00 | 47 | 1010.6 |
| 20260503230012 | 10 | 335 | 3.2 | 11.3 | 0.00 | 0.00 | 0.00 | 44 | 1010.4 |
| 20260503224514 | 11 | 331 | 3.2 | 11.3 | 0.00 | 0.00 | 0.00 | 44 | 1010.2 |
| 20260503223011 | 11 | 236 | 3.2 | 14.5 | 0.00 | 0.00 | 0.00 | 42 | 1010.1 |
| 20260503221510 | 12 | 278 | 3.2 | 14.5 | 0.00 | 0.00 | 0.00 | 39 | 1010.1 |
| 20260503220028 | 11 | 327 | 3.2 | 17.7 | 0.00 | 0.00 | 0.00 | 39 | 1010.1 |
| 20260503214509 | 12 | 330 | 1.6 | 17.7 | 0.00 | 0.00 | 0.00 | 37 | 1010.0 |
| 20260503213011 | 12 | 23 | 3.2 | 19.3 | 0.00 | 0.00 | 0.00 | 37 | 1010.0 |
| 20260503211507 | 11 | 317 | 6.4 | 24.1 | 0.00 | 0.00 | 0.00 | 37 | 1009.9 |
| 20260503210008 | 12 | 297 | 6.4 | 16.1 | 0.00 | 0.00 | 0.00 | 34 | 1009.9 |
| 20260503204507 | 12 | 56 | 3.2 | 17.7 | 0.00 | 0.00 | 0.00 | 35 | 1009.7 |
| 20260503203013 | 12 | 139 | 4.8 | 20.9 | 0.00 | 0.00 | 0.00 | 34 | 1009.8 |
| 20260503201503 | 12 | 292 | 6.4 | 16.1 | 0.00 | 0.00 | 0.00 | 34 | 1009.9 |
| 20260503200001 | 12 | 333 | 8.0 | 20.9 | 0.00 | 0.00 | 0.00 | 36 | 1010.1 |
| 20260503194559 | 12 | 272 | 3.2 | 16.1 | 0.00 | 0.00 | 0.00 | 37 | 1010.4 |
| 20260503193109 | 12 | 244 | 11.3 | 32.2 | 0.00 | 0.00 | 0.00 | 36 | 1010.6 |
| 20260503191602 | 11 | 359 | 8.0 | 24.1 | 0.00 | 0.00 | 0.00 | 38 | 1010.7 |
| 20260503190055 | 11 | 188 | 4.8 | 14.5 | 0.00 | 0.00 | 0.00 | 40 | 1010.8 |
| 20260503184604 | 11 | 1 | 6.4 | 17.7 | 0.00 | 0.00 | 0.00 | 39 | 1011.2 |
| 20260503183057 | 10 | 309 | 6.4 | 19.3 | 0.00 | 0.00 | 0.00 | 39 | 1011.3 |
| 20260503181543 | 10 | 328 | 3.2 | 17.7 | 0.00 | 0.00 | 0.00 | 39 | 1011.3 |
| 20260503180043 | 10 | 312 | 4.8 | 14.5 | 0.00 | 0.00 | 0.00 | 40 | 1011.4 |
| 20260503174539 | 10 | 207 | 6.4 | 17.7 | 0.00 | 0.00 | 0.00 | 41 | 1011.5 |
| 20260503173040 | 9 | 277 | 4.8 | 17.7 | 0.00 | 0.00 | 0.00 | 43 | 1011.8 |
| 20260503171535 | 9 | 309 | 6.4 | 17.7 | 0.00 | 0.00 | 0.00 | 44 | 1011.9 |